Notices

What's New in latest Release from April 7th, 2021:

- Updated Glossary, including Speed of Maximum Gust, and Total Hourly Precipitation

- Updated national and regional climate services offices contacts and prices information

- Addition of station inventory lists for 1981-2010, 1971-2000, and 1961-1990 Normals.

If you haven't already, please take our survey and provide feedback about our website: https://eccc.sondage-survey.ca/f/LanguageSelection.aspx?s=442ca660-fcf1-47c0-95a9-59707d6fd709

Hourly Data Report for January 23, 2021

SHEARWATER RCS
NOVA SCOTIA
Current Station Operator: ECCC - MSC

44°37'47.000" N
63°30'48.000" W
24.00 m
8205092
71264
AAW

Download Data

Hourly Data (January 2021)
Hourly Data Report for January 23, 2021
TIME
LST
Temp Definition
°C
Dew Point Definition
°C
Rel Hum Definition
%
Precip. Amount Definition
mm

Wind Dir Definition
10's deg

Wind Spd Definition
km/h
Visibility Definition
km
Stn Press Definition
kPa
Hmdx Definition


Wind Chill Definition


Weather Definition


00:00 -6.5 -7.6 92 0.0 31 5   100.17   -9 LegendNANA
01:00 -6.6 -7.7 92 0.0 34 9   100.17   -11 LegendNANA
02:00 -7.3 -8.5 91 0.0 34 8   100.20   -11 LegendNANA
03:00 -7.1 -8.5 90 0.0 34 9   100.22   -11 LegendNANA
04:00 -9.0 -10.3 90 0.2 31 3   100.22   -11 LegendNANA
05:00 -8.3 -9.6 90 0.0 32 8   100.21   -12 LegendNANA
06:00 -9.6 -11.1 89 0.0 26 4   100.21   -12 LegendNANA
07:00 -10.3 -11.6 90 0.0 32 7   100.20   -14 LegendNANA
08:00 -10.9 -12.2 90 0.0 31 3   100.19   -13 LegendNANA
09:00 -6.8 -8.0 91 0.0 13 2   100.20   -8 LegendNANA
10:00 -5.2 -6.5 90 0.0 3 3   100.17   -7 LegendNANA
11:00 -1.5 -3.4 86 2.1 0 1   100.12   -2 LegendNANA
12:00 -2.4 -4.6 85 1.0 20 4   100.02   -4 LegendNANA
13:00 -1.4 -3.8 84 0.0 14 4   99.88   -3 LegendNANA
14:00 -1.5 -3.4 87 0.0 15 4   99.79   -3 LegendNANA
15:00 -1.4 -3.2 87 0.0 26 6   99.74   -4 LegendNANA
16:00 -1.2 -2.9 89 0.2 25 7   99.67   -4 LegendNANA
17:00 -1.6 -3.1 90 0.0 28 5   99.62   -3 LegendNANA
18:00 -2.0 -4.5 83 0.0 30 15   99.62   -7 LegendNANA
19:00 -3.4 -7.0 76 0.0 29 16   99.62   -9 LegendNANA
20:00 -3.8 -7.1 78 0.0 29 20   99.56   -10 LegendNANA
21:00 -4.5 -8.0 77 0.0 30 17   99.54   -10 LegendNANA
22:00 -5.2 -8.8 76 0.0 29 15   99.49   -11 LegendNANA
23:00 -5.9 -9.5 76 0.0 29 18   99.44   -12 LegendNANA

Notes on Data Quality.

Legend

  • E = Estimated
  • M = Missing
  • NA = Not Available*
  • [empty] = Indicates an unobserved value
Date modified: